Altoona, PA

8:33 PM EDT on August 25, 2019 (GMT -0400)
Altoona-Blair County

Weather History for KAOO - May, 2019

Change the Weather History Date:

Saturday, May 18, 2019

  Actual Average Record
Temperature  
Mean Temperature 70 °F 59 °F  
Max Temperature 80 °F 70 °F 91 °F (1962)
Min Temperature 59 °F 48 °F 35 °F (1955)
Degree Days  
Heating Degree Days 0 7  
Month to date heating degree days 99 167  
Since 1 July heating degree days 5653 6085  
Cooling Degree Days 5 1  
Month to date cooling degree days 13 8  
Year to date cooling degree days 13 14  
Growing Degree Days 20 (Base 50)    
Moisture  
Dew Point 60 °F    
Average Humidity 69    
Maximum Humidity 90    
Minimum Humidity 48    
Precipitation  
Precipitation 0.00 in 0.12 in 1.88 in (1988)
Month to date precipitation 4.08 2.13  
Year to date precipitation 16.89 12.60  
Sea Level Pressure  
Sea Level Pressure 29.98 in    
Wind  
Wind Speed 3 mph (NNW)    
Max Wind Speed 10 mph    
Max Gust Speed 13 mph    
Visibility 10 miles    
Events      
T = Trace of Precipitation, MM = Missing Value Source: NWS Daily Summary

Daily Weather History Graph

Daily Weather History Graph

Search for Another Location

Airport or City:

Astronomy

May. 18, 2019 Rise Set
Actual Time 5:54 AM EDT 8:25 PM EDT
Civil Twilight 5:23 AM EDT 8:56 PM EDT
Nautical Twilight 4:45 AM EDT 9:35 PM EDT
Astronomical Twilight 4:02 AM EDT 10:18 PM EDT
Moon 8:18 PM EDT (5/18) 6:00 AM EDT (5/18)
Length of Visible Light 15h 32m
Length of Day
14h 30m
Full, 100% of the Moon is Illuminated
May 18
Full
May 18
Full
May 26
Last Quarter
Jun 3
New
Jun 10
First Quarter

Hourly Weather History & Observations

Time (EDT) Temp. Heat Index Dew Point Humidity Pressure Visibility Wind Dir Wind Speed Gust Speed Precip Events Conditions
12:53 AM 64.9 °F - 61.0 °F 87% 29.91 in 10.0 mi NW 4.6 mph - N/A   Overcast
1:08 AM 64.9 °F - 60.1 °F 84% 29.93 in 10.0 mi NW 4.6 mph - N/A   Mostly Cloudy
1:33 AM 64.9 °F - 60.1 °F 84% 29.93 in 10.0 mi NNW 5.8 mph - N/A   Mostly Cloudy
1:53 AM 64.9 °F - 60.1 °F 84% 29.91 in 10.0 mi NNW 5.8 mph - N/A   Overcast
2:53 AM 63.0 °F - 59.0 °F 87% 29.91 in 9.0 mi WNW 4.6 mph - N/A   Overcast
3:53 AM 62.1 °F - 57.9 °F 86% 29.92 in 9.0 mi North 4.6 mph - N/A   Overcast
4:49 AM 60.8 °F - 57.2 °F 88% 29.95 in 10.0 mi North 8.1 mph - N/A   Mostly Cloudy
4:53 AM 61.0 °F - 57.0 °F 87% 29.94 in 10.0 mi North 8.1 mph - N/A   Mostly Cloudy
5:07 AM 60.1 °F - 55.9 °F 86% 29.96 in 10.0 mi North 4.6 mph - N/A   Mostly Cloudy
5:53 AM 60.1 °F - 55.9 °F 86% 29.96 in 10.0 mi North 4.6 mph - N/A   Mostly Cloudy
6:53 AM 60.1 °F - 55.9 °F 86% 29.99 in 10.0 mi North 8.1 mph - N/A   Overcast
7:53 AM 62.1 °F - 55.9 °F 80% 30.00 in 10.0 mi Calm Calm - N/A   Mostly Cloudy
8:53 AM 63.0 °F - 55.0 °F 75% 30.01 in 10.0 mi East 3.5 mph - N/A   Overcast
9:53 AM 64.9 °F - 55.9 °F 73% 30.04 in 10.0 mi Calm Calm - N/A   Scattered Clouds
10:05 AM 64.0 °F - 55.9 °F 75% 30.06 in 10.0 mi Calm Calm - N/A   Mostly Cloudy
10:50 AM 64.4 °F - 57.2 °F 77% 30.05 in 10.0 mi Calm Calm - N/A   Mostly Cloudy
10:53 AM 66.0 °F - 57.9 °F 75% 30.03 in 10.0 mi Calm Calm - N/A   Mostly Cloudy
11:53 AM 66.9 °F - 60.1 °F 79% 30.03 in 8.0 mi Variable 4.6 mph - N/A   Mostly Cloudy
12:53 PM 69.1 °F - 62.1 °F 78% 30.02 in 7.0 mi Variable 3.5 mph - N/A   Mostly Cloudy
1:00 PM 69.1 °F - 61.0 °F 75% 30.03 in 8.0 mi Calm Calm - N/A   Scattered Clouds
1:53 PM 73.9 °F - 62.1 °F 66% 29.99 in 10.0 mi Variable 3.5 mph - N/A   Mostly Cloudy
2:16 PM 73.9 °F - 62.1 °F 66% 30.01 in 10.0 mi Calm Calm - N/A   Mostly Cloudy
2:24 PM 73.9 °F - 62.1 °F 66% 30.01 in 10.0 mi Calm Calm - N/A   Scattered Clouds
2:31 PM 75.0 °F - 63.0 °F 66% 30.00 in 10.0 mi Calm Calm - N/A   Mostly Cloudy
2:43 PM 73.9 °F - 62.1 °F 66% 30.00 in 10.0 mi SSE 4.6 mph - N/A   Scattered Clouds
2:53 PM 73.9 °F - 62.1 °F 66% 29.98 in 10.0 mi Calm Calm - N/A   Mostly Cloudy
3:10 PM 75.9 °F - 63.0 °F 64% 29.99 in 10.0 mi Calm Calm - N/A   Scattered Clouds
3:53 PM 78.1 °F - 63.0 °F 60% 29.96 in 10.0 mi Calm Calm - N/A   Partly Cloudy
4:53 PM 78.1 °F - 64.0 °F 62% 29.95 in 10.0 mi South 3.5 mph - N/A   Clear
5:53 PM 80.1 °F 81.7 °F 64.0 °F 58% 29.94 in 10.0 mi Calm Calm - N/A   Clear
6:53 PM 79.0 °F - 60.1 °F 52% 29.94 in 10.0 mi West 6.9 mph - N/A   Clear
7:53 PM 78.1 °F - 57.9 °F 50% 29.96 in 10.0 mi Calm Calm - N/A   Clear
8:53 PM 73.0 °F - 62.1 °F 68% 29.98 in 10.0 mi ESE 4.6 mph - N/A   Mostly Cloudy
9:53 PM 68.0 °F - 63.0 °F 84% 29.99 in 10.0 mi SSE 6.9 mph - N/A   Partly Cloudy
10:53 PM 66.9 °F - 63.0 °F 87% 30.00 in 10.0 mi SSE 6.9 mph - N/A   Clear
11:53 PM 66.0 °F - 61.0 °F 84% 30.00 in 10.0 mi West 3.5 mph - N/A   Clear